Regional Weather Roundup
Issued by NWS

Home | Current Version | Previous Version | Graphics & Text | Print | Product List | Glossary On
Versions: 1 2 3 4 5 6 7 8 9 10 11 12 13 14 15 16 17 18 19 20 21 22 23 24 25 26 27 28 29 30 31 32 33 34 35 36 37 38 39 40 41 42 43 44 45 46 47 48 49 50
895
ASUS43 KLMK 102210
RWRKY
KENTUCKY REGIONAL WEATHER ROUNDUP
NATIONAL WEATHER SERVICE LOUISVILLE KY
500 PM EST WED FEB 10 2016

NOTE "FAIR" INDICATES FEW OR NO CLOUDS BELOW 12,000 FEET
WITH NO SIGNIFICANT WEATHER AND/OR OBSTRUCTIONS TO VISIBILITY.

KYZ001>023-026-027-061>063-070>075-102300-
WESTERN AND SOUTH CENTRAL KENTUCKY

CITY           SKY/WX    TMP DP  RH WIND       PRES   REMARKS
PADUCAH        LGT SNOW  24  18  77 W7        30.16S WCI  16
HENDERSON      CLOUDY    27  10  50 W12       30.14S WCI  16
OWENSBORO      MOSUNNY   25  11  55 W9        30.14S WCI  16
HOPKINSVILLE   CLOUDY    27  10  49 W13       30.13S WCI  16
BOWLING GREEN  CLOUDY    26  11  52 W10       30.14S WCI  16
GLASGOW        CLOUDY    24  12  58 W17       30.12S WCI  11
$$

KYZ024-025-028>034-038-045-046-053-102300-
NORTH CENTRAL KENTUCKY

CITY           SKY/WX    TMP DP  RH WIND       PRES   REMARKS
LOUISVILLE/SDF CLOUDY    23   7  50 SW14      30.10R WCI  11
LOUISVILLE/LOU CLOUDY    22   8  55 W12       30.10R WCI  10
FORT KNOX      PTSUNNY   22  10  58 SW15      30.08R WCI   9
$$

KYZ035>037-039>044-047>052-055>060-089>105-102300-
NORTHEAST KENTUCKY

CITY           SKY/WX    TMP DP  RH WIND       PRES   REMARKS
LEXINGTON      PTSUNNY   19   6  57 SW12      30.06R WCI   7
COVINGTON      CLOUDY    17   4  56 W13       30.04R WCI   4
FRANKFORT      MOSUNNY   20   6  55 W8        30.06R WCI  10
$$

KYZ054-064>069-076>088-106>120-102300-
SOUTHEAST KENTUCKY

CITY           SKY/WX    TMP DP  RH WIND       PRES   REMARKS
JACKSON        CLOUDY    17   6  62 VRB6      30.02R WCI   9
LONDON         CLOUDY    19   7  59 W10       30.06S WCI   7
SOMERSET       MOSUNNY   21   9  58 W10       30.11R WCI  10
MIDDLESBORO    SUNNY     23   7  50 W6        30.06S WCI  16
MONTICELLO     MOCLDY    23   9  55 W23       30.11R WCI   7
$$





USA.gov is the U.S. government's official web portal to all federal, state and local government web resources and services.